Skip Page Navigation
NASA JPL Caltech
NASA Logo - Jet Propulsion Laboratory + View the NASA Portal
+ Center for Near-Earth Object Studies
JPL Home Earth Solar System Stars & Galaxies Technology
JPL Solar System Dynamics
BODIES ORBITS EPHEMERIDES TOOLS PHYSICAL DATA DISCOVERY FAQ SITE MAP
IMPORTANT: The SSD Announcement email list is now available. Major changes are coming in the near future, including possible hostname and/or URL changes. To be notified of such changes, subscribe to this email list.

Please visit this page for more details.


JPL Small-Body Database Browser
Search: [ help ]  
95274 (2002 CU72)
Classification: Main-belt Asteroid          SPK-ID: 2095274
Ephemeris | Orbit Diagram | Orbital Elements | Mission Design | Physical Parameters | Discovery Circumstances ]

[ show orbit diagram ]
Orbital Elements at Epoch 2459000.5 (2020-May-31.0) TDB
Reference: JPL 17 (heliocentric ecliptic J2000)
 Element Value Uncertainty (1-sigma)   Units 
e .1558761998882616 4.5121e-08  
a 2.398507383373144 1.2405e-08 au
q 2.024637167049 1.0967e-07 au
i 6.795616072995001 4.127e-06 deg
node 137.0644938023649 4.158e-05 deg
peri 264.2114750968824 4.4141e-05 deg
M 54.6934487134094 1.303e-05 deg
tp 2458794.369230518930
(2019-Nov-06.86923052)
4.9362e-05 TDB
period 1356.781822298796
3.71
1.0526e-05
2.882e-08
d
yr
n .2653337434828335 2.0584e-09 deg/d
Q 2.772377599697287 1.4339e-08 au
  Orbit Determination Parameters
   # obs. used (total)      384  
   data-arc span      9014 days (24.68 yr)  
   first obs. used      1995-03-26  
   last obs. used      2019-11-29  
   planetary ephem.      DE431  
   SB-pert. ephem.      SB431-N16  
   condition code      0  
   norm. resid. RMS      .5532  
   source      ORB  
   producer      Otto Matic  
   solution date      2019-Dec-14 08:23:58  

Additional Information
 Earth MOID = 1.04611 au 
 Jupiter MOID = 2.64762 au 
 T_jup = 3.501 
[ show covariance matrix ]

Ephemeris | Orbit Diagram | Orbital Elements | Mission Design | Physical Parameters | Discovery Circumstances ]

Physical Parameter Table
Parameter Symbol Value Units Sigma Reference Notes
absolute magnitude H 16.6   n/a MPO453398  

95274 (2002 CU72)          Discovered 2002-Feb-07 by LINEAR at Socorro
Reference: 20041028/Numbers.arcLast Updated: 2004-10-29
Ephemeris | Orbit Diagram | Orbital Elements | Mission Design | Physical Parameters | Discovery Circumstances ]
ABOUT SSD CREDITS/AWARDS PRIVACY/COPYRIGHT GLOSSARY LINKS
FirstGov 2020-Feb-18 06:51 UT
(server date/time)  
NASA Home Page
Site Manager:   Ryan S. Park
Webmaster  Alan B. Chamberlin